Regional Weather Roundup
Issued by NWS Northern Indiana

Home | Current Version | Previous Version | Text Only | Print | Product List | Glossary Off
Versions: 1 2 3 4 5 6 7 8 9 10 11 12 13 14 15 16 17 18 19 20 21 22 23 24 25 26 27 28 29 30 31 32 33 34 35 36 37 38 39 40 41 42 43 44 45 46 47 48 49 50

992
ASUS43 KIWX 211710
RWRIWX

KIWX WEATHER ROUNDUP
NATIONAL WEATHER SERVICE NORTHERN INDIANA
1200 PM EST SUN JAN 21 2018

NOTE: "FAIR" INDICATES FEW OR NO CLOUDS BELOW 12,000 FEET WITH NO
SIGNIFICANT WEATHER AND/OR OBSTRUCTIONS TO VISIBILITY.

* THESE STATIONS ARE NOT UNDER NWS QUALITY CONTROL. THEY ALSO MAY NOT
  REPORT WEATHER SUCH AS PRECIPITATION OR FOG.

INZ001>027-211800-
NORTHERN INDIANA

CITY           SKY/WX    TMP DP  RH WIND       PRES   REMARKS
GARY*          CLOUDY    45  43  93 VRB5      29.99S FOG
VALPARAISO     FOG       40  40 100 S6        30.00F VSB<1/4
MICHIGAN CITY* CLOUDY    41  41 100 CALM      30.00F FOG
LAPORTE*       FOG       38  38 100 S6        30.00F VSB<1/4
KNOX*          CLOUDY    37  37 100 S6        30.01S VSB<1/4
SOUTH BEND     FOG       41  40  96 S6        30.00F VSB 1
ELKHART*       FOG       41  39  93 S6        30.00F VSB 1/2
GOSHEN         FOG       41  40  96 S8        30.01F VSB 1/4
MONTICELLO*    FOG       41  40  95 CALM      30.01S VSB<1/4
LOGANSPORT*    FOG       39  37  93 S7        30.02F VSB<1/4
ROCHESTER*     FOG       43 N/A N/A S3        30.02F VSB<1/4
WARSAW*        SNOW      41  41 100 CALM      30.02F VSB 1/4
AUBURN*        FOG      N/A N/A N/A S3        30.03F VSB 1/4
FORT WAYNE     FOG       44  43  96 S5        30.03F VSB 1/4
HUNTINGTON*    FOG       42  41  96 S3        30.02F VSB 1/4
PERU/GRISSOM   FOG       44  44 100 S12       30.01F VSB 3/8
MARION*        FOG       42  42 100 CALM      30.04S VSB 1/4

$$
INZ028>050-211800-
CENTRAL INDIANA

CITY           SKY/WX    TMP DP  RH WIND       PRES   REMARKS
LAFAYETTE      FOG       43  43 100 CALM      30.02S VSB 1/4
MUNCIE*        CLOUDY    47  44  90 S8        30.04F
INDIANAPOLIS   FOG       48  47  96 S7        30.05F VSB 1

$$
MIZ043>046-050>051-056>058-064>065-071>073-077>080-211800-
SOUTHWEST LOWER MICHIGAN

CITY           SKY/WX    TMP DP  RH WIND       PRES   REMARKS
BATTLE CREEK   CLOUDY    37  37 100 S5        30.02F FOG
BENTON HARBOR  CLOUDY    41  38  89 SE7       30.00F FOG
COLDWATER*     FOG       38  38 100 CALM      30.01F VSB 3/4
HILLSDALE*     FOG       37  36  93 CALM      30.01F VSB<1/4
HOLLAND        CLOUDY    39  36  89 CALM      30.01F FOG
GRAND RAPIDS   CLOUDY    38  35  89 SE5       30.01F FOG
KALAMAZOO      CLOUDY    40  38  93 CALM      30.02F FOG
STURGIS*       FOG       40  39  99 SE3       30.01F VSB 1/4
THREE RIVERS*  FOG       39  38  99 CALM      30.02F VSB 3/4

$$
OHZ001>008-015>018-024>025-211800-
NORTHWEST OHIO

CITY           SKY/WX    TMP DP  RH WIND       PRES   REMARKS
WAUSEON*       FOG       39  39 100 S5        30.03F VSB<1/4
DEFIANCE       FOG       41  40  96 S5        30.03F VSB 1/2
FINDLAY        CLOUDY    43  41  93 S7        30.04F FOG
TOLEDO EXPRESS CLOUDY    41  41 100 S3        30.04F FOG
TOLEDO METCALF CLOUDY    42  41  96 S5        30.05F FOG
LIMA           CLOUDY    44  44 100 S9        30.04F

$$
AND FOR LAKE MICHIGAN COASTAL AND OPEN LAKE BUOY OBSERVATIONS

STATION/POSITION TEMP    WIND        PRES    VSBY  WAVE
                 AIR SEA DIR/SP/G                  HT/PER
                 (F)     (DEG/KT/KT) (MB)    (MI)  (FT/S)
CALUMET HARBOR    41     190/  1/  3 1014.8F
MICHIGAN CITY     40     130/  7/  8   N/A
BURNS HARBOR      41     200/  8/ 12 1016.3F
SAINT JOSEPH      41     130/  3/  6 1016.6

$$
&&




USA.gov is the U.S. government's official web portal to all federal, state and local government web resources and services.